Location: Sudbury
(46.5221°N, 80.9530°W)
Time: 17:28:41
(UTC-04:00)

ISS - Visible Passes

Search period start: 26 May 2024 00:00
Search period end: 05 June 2024 00:00
Orbit: 411 x 419 km, 51.6° (Epoch: 26 May)

Date Brightness Start Highest point End Pass type
(mag) Time Alt. Az. Time Alt. Az. Time Alt. Az.
26 May -3.2 21:52:03 10° WNW 21:55:18 48° SW 21:58:22 11° SE visible
27 May -1.3 22:40:58 10° WSW 22:42:40 13° SW 22:44:12 10° SSW visible
28 May -1.9 21:51:18 10° W 21:53:55 21° SW 21:56:32 10° S visible
